[[{"header":{"parameterUnit":"m.s-1","parameterCategory":1,"la1":30.2991,"la2":30.254,"lo1":-89.0895,"lo2":-89.0444,"dy":0.0017,"dx":0.0017,"nx":28,"ny":28,"refTime":"2026-01-31T03:00:00:Z","depth":0,"parameterNumber":2,"parameterNumberName":"U-component_of_WINDS"},"data":[0,0,0,0,0,0,0,0,0,0,0,0,0,0,0,0,0,0,0,0,0,0,0,0,0,0,0,0,0,0,0,0,0,0,0,0,0,0,0,0,0,0,0,0,0,0,0,0,0,0,0,0,0,0,0,0,0,0,1.4487,1.4487,0,1.4487,1.4487,1.4487,1.4484,1.4484,1.4484,1.4484,1.4482,1.4482,1.4482,0,0,0,0,0,0,0,0,0,0,0,0,0,1.4485,1.4485,1.4487,1.4487,1.4487,1.4487,1.4487,1.4487,1.4484,1.4484,1.4484,1.4484,1.4482,1.4482,1.4482,0,0,0,0,0,0,0,0,0,0,0,0,0,1.4485,1.4485,1.4487,1.4486,1.4486,1.4487,1.4487,1.4487,1.4484,1.4484,1.4484,1.4484,1.4482,1.4482,1.4482,1.4484,0,0,1.4482,1.4482,0,0,0,0,0,0,0,0,1.4485,1.4486,1.4486,1.4486,1.4486,1.4486,1.4486,1.4486,1.4484,1.4485,1.4484,1.4484,1.4483,1.4483,1.4483,1.4484,1.4484,1.4482,1.4482,1.4482,1.4482,0,0,0,0,0,0,0,1.4485,1.4486,1.4487,1.4486,1.4486,1.4485,1.4485,1.4486,1.4485,1.4485,1.4485,1.4485,1.4483,1.4483,1.4483,1.4484,1.4482,1.4482,1.4482,1.4482,1.4487,1.4487,0,0,0,0,0,0,1.4486,1.4486,1.4487,1.4487,1.4486,1.4485,1.4485,1.4486,1.4485,1.4484,1.4485,1.4485,1.4483,1.4483,1.4483,1.4486,1.4482,1.4482,1.4482,1.4487,1.4487,1.4487,0,0,0,0,0,0,1.4486,1.4486,1.4487,1.4486,1.4486,1.4486,1.4486,1.4486,1.4486,1.4485,1.4484,1.4485,1.4483,1.4483,1.4484,1.4486,1.4482,1.4482,1.4487,1.4487,1.4487,1.4491,0,0,0,0,0,0,1.4486,1.4486,1.4487,1.4486,1.4487,1.4488,1.4486,1.4486,1.4486,1.4486,1.4485,1.4485,1.4483,1.4484,1.4484,1.4486,1.4482,1.4487,1.4487,1.4487,1.4491,1.4491,1.4492,0,0,0,0,0,1.4486,1.4487,1.4487,1.4487,1.4487,1.4489,1.4489,1.4487,1.4486,1.4487,1.4486,1.4485,1.4486,1.4484,1.4484,1.4486,1.4487,1.4487,1.4487,1.449,1.4491,1.4492,0,0,0,0,0,0,1.4486,1.4487,1.4486,1.4488,1.4488,1.4488,1.4489,1.4488,1.4488,1.4488,1.4486,1.4486,1.4487,1.4487,1.4485,1.4488,1.4486,1.4486,1.4488,1.4489,1.4489,1.4489,1.4482,0,0,0,0,0,1.4487,1.4488,1.4488,1.449,1.449,1.4489,1.449,1.4489,1.4489,1.4489,1.4488,1.4488,1.4489,1.4489,1.4489,1.4491,1.4491,1.4492,1.4492,1.4493,1.4493,1.4494,1.4495,1.4488,1.4488,1.4488,0,0,1.4487,1.4488,1.4489,1.449,1.449,1.4491,1.4489,1.449,1.4491,1.4489,1.449,1.449,1.449,1.4491,1.4492,1.4491,1.4495,1.4493,1.4494,1.4493,1.4495,1.4495,1.4496,1.4489,1.4489,1.4489,0,0,1.4489,1.449,1.4491,1.4492,1.4493,1.4493,1.4493,1.4493,1.4493,1.4495,1.4494,1.4495,1.4495,1.4495,1.4495,1.4499,1.4498,1.45,1.4502,1.4503,1.4504,1.4504,1.4506,1.4506,1.45,1.45,1.45,0,1.449,1.4492,1.4492,1.4493,1.4494,1.4494,1.4495,1.4496,1.4496,1.4497,1.4496,1.4497,1.4497,1.4499,1.45,1.45,1.4501,1.4499,1.4504,1.4504,1.4505,1.4506,1.4507,1.45,1.45,1.45,1.45,0,1.4492,1.4494,1.4495,1.4497,1.4498,1.4499,1.45,1.4501,1.45,1.4501,1.4502,1.4503,1.4503,1.4504,1.4503,1.4506,1.4505,1.4504,1.4502,1.4506,1.4507,1.4507,1.45,1.45,1.45,1.45,0,0,1.4493,1.4496,1.4496,1.4498,1.4499,1.45,1.4502,1.4504,1.4505,1.4506,1.4507,1.4509,1.4508,1.4508,1.4508,1.4509,1.4513,1.4508,1.4508,1.4509,1.4516,1.4517,1.4517,1.4512,1.4512,1.4513,1.4516,0,1.4495,1.4498,1.4499,1.4502,1.4504,1.4504,1.4506,1.4507,1.4508,1.4509,1.451,1.4511,1.451,1.451,1.4512,1.4512,1.4514,1.4512,1.4513,1.4513,1.4513,1.4518,1.4518,1.4522,1.4517,1.4517,1.4517,0,1.4497,1.4499,1.4502,1.4505,1.4505,1.4507,1.4509,1.451,1.4512,1.4513,1.4514,1.4514,1.4516,1.4514,1.4517,1.4516,1.4517,1.4517,1.4517,1.4517,1.4515,1.4517,1.4523,1.4523,1.4518,1.4518,1.4518,0,1.4497,1.4501,1.4503,1.4504,1.4507,1.4508,1.451,1.4511,1.4513,1.4515,1.4515,1.4517,1.4518,1.452,1.452,1.4519,1.4523,1.4522,1.4523,1.4523,1.4523,1.4523,1.4529,1.4525,1.4525,1.4525,1.4525,0,1.4498,1.45,1.4503,1.4505,1.4507,1.4509,1.4511,1.4513,1.4514,1.4516,1.4517,1.4519,1.4519,1.4521,1.4522,1.4524,1.4525,1.4525,1.4525,1.4525,1.4525,1.4525,1.4524,1.4525,1.4525,1.4525,1.4525,0,1.4498,1.4501,1.4504,1.4507,1.4508,1.4509,1.4512,1.4514,1.4515,1.4518,1.4518,1.452,1.4523,1.4524,1.4526,1.4527,1.453,1.453,1.4529,1.4529,1.4531,1.453,1.4536,1.4537,1.4533,1.4533,1.4533,0,1.4499,1.4501,1.4504,1.4506,1.4508,1.451,1.4512,1.4514,1.4516,1.4519,1.452,1.4523,1.4525,1.4529,1.453,1.4532,1.4532,1.4534,1.4532,1.4532,1.4532,1.4532,1.4532,1.4534,1.4534,1.4534,1.4534,0,1.4499,1.4501,1.4503,1.4507,1.4509,1.4512,1.4514,1.4515,1.4518,1.452,1.4523,1.4524,1.4528,1.4531,1.4534,1.4535,1.4535,1.4535,1.4535,1.4535,1.4534,1.4534,1.4529,1.4534,1.4534,1.4534,1.4534,1.4534,1.45,1.4501,1.4505,1.4508,1.451,1.4513,1.4515,1.4517,1.452,1.4523,1.4524,1.4528,1.453,1.4534,1.4536,1.4538,1.4538,1.4538,1.4538,1.4538,1.4539,1.4535,1.4539,1.4539,1.4539,1.4539,1.4539,0,1.45,1.4503,1.4506,1.451,1.4512,1.4514,1.4517,1.4519,1.4522,1.4524,1.4527,1.4531,1.4534,1.4536,1.4539,1.4541,1.4541,1.4542,1.4541,1.4542,1.4539,1.4538,1.4542,1.4542,1.4542,1.4542,1.4542,1.4542,1.4501,1.4504,1.4506,1.4511,1.4513,1.4517,1.4519,1.4521,1.4524,1.4528,1.4531,1.4533,1.4536,1.4539,1.4542,1.4543,1.4544,1.4544,1.4545,1.4542,1.4542,1.4541,1.4541,1.4545,1.4545,1.4547,1.4548,1.4548]},{"header":{"parameterUnit":"m.s-1","parameterCategory":1,"la1":30.2991,"la2":30.254,"lo1":-89.0895,"lo2":-89.0444,"dy":0.0017,"dx":0.0017,"nx":28,"ny":28,"refTime":"2026-01-31T03:00:00:Z","depth":0,"parameterNumber":3,"parameterNumberName":"V-component_of_WINDS"},"data":[0,0,0,0,0,0,0,0,0,0,0,0,0,0,0,0,0,0,0,0,0,0,0,0,0,0,0,0,0,0,0,0,0,0,0,0,0,0,0,0,0,0,0,0,0,0,0,0,0,0,0,0,0,0,0,0,0,0,-7.4652,-7.4654,0,-7.4862,-7.4864,-7.4866,-7.481,-7.4806,-7.4802,-7.4798,-7.5009,-7.5018,-7.5027,0,0,0,0,0,0,0,0,0,0,0,0,0,-7.4198,-7.4207,-7.4651,-7.4654,-7.4657,-7.4861,-7.4864,-7.4867,-7.4811,-7.4806,-7.4801,-7.4796,-7.5005,-7.5017,-7.5028,0,0,0,0,0,0,0,0,0,0,0,0,0,-7.44,-7.421,-7.4651,-7.4654,-7.4656,-7.4861,-7.4864,-7.4868,-7.4812,-7.4806,-7.4799,-7.4793,-7.5002,-7.5016,-7.503,-7.5244,0,0,-7.5073,-7.508,0,0,0,0,0,0,0,0,-7.4389,-7.4417,-7.4651,-7.4654,-7.4657,-7.4803,-7.4781,-7.4994,-7.4813,-7.4753,-7.4798,-7.479,-7.4945,-7.4964,-7.5017,-7.5253,-7.5263,-7.5075,-7.5083,-7.5089,-7.5093,0,0,0,0,0,0,0,-7.4375,-7.4408,-7.4734,-7.4654,-7.4658,-7.4643,-7.4665,-7.4821,-7.4881,-7.4757,-7.4754,-7.478,-7.4945,-7.5003,-7.5021,-7.5266,-7.5074,-7.5087,-7.5096,-7.5101,-7.5688,-7.5695,0,0,0,0,0,0,-7.4359,-7.4396,-7.4728,-7.4741,-7.4505,-7.4656,-7.468,-7.4763,-7.488,-7.4891,-7.4785,-7.4776,-7.4982,-7.5005,-7.5028,-7.5287,-7.5089,-7.5103,-7.5111,-7.5681,-7.5689,-7.5697,0,0,0,0,0,0,-7.435,-7.4389,-7.4719,-7.4568,-7.4609,-7.4671,-7.4763,-7.477,-7.4827,-7.49,-7.491,-7.4833,-7.4978,-7.5008,-7.5191,-7.5293,-7.5109,-7.5122,-7.5673,-7.5684,-7.5693,-7.5805,0,0,0,0,0,0,-7.4337,-7.4386,-7.4469,-7.457,-7.4617,-7.488,-7.477,-7.4779,-7.4853,-7.4844,-7.4948,-7.4959,-7.4975,-7.517,-7.5205,-7.5309,-7.5133,-7.5664,-7.5678,-7.569,-7.5792,-7.5818,-7.584,0,0,0,0,0,-7.4321,-7.4491,-7.4474,-7.4514,-7.4722,-7.4886,-7.4913,-7.4929,-7.4861,-7.4945,-7.4991,-7.4956,-7.5276,-7.5189,-7.5228,-7.5338,-7.5657,-7.5674,-7.5689,-7.5782,-7.5813,-7.5839,0,0,0,0,0,0,-7.4399,-7.4504,-7.4486,-7.4695,-7.4782,-7.4876,-7.4982,-7.4961,-7.5068,-7.5055,-7.5069,-7.5093,-7.528,-7.5327,-7.5228,-7.5551,-7.5457,-7.5481,-7.5514,-7.5544,-7.5567,-7.5552,-7.5145,0,0,0,0,0,-7.4441,-7.4567,-7.4651,-7.4827,-7.4872,-7.492,-7.4991,-7.4996,-7.5087,-7.5123,-7.5183,-7.5271,-7.5391,-7.547,-7.5585,-7.5799,-7.582,-7.5894,-7.5917,-7.5936,-7.5957,-7.6074,-7.6107,-7.5749,-7.5749,-7.5749,0,0,-7.4528,-7.4601,-7.4679,-7.4844,-7.4913,-7.5041,-7.4951,-7.5091,-7.5186,-7.5143,-7.532,-7.5367,-7.5466,-7.5665,-7.5756,-7.571,-7.6061,-7.5957,-7.5971,-7.5982,-7.6094,-7.6127,-7.6158,-7.576,-7.5758,-7.5756,0,0,-7.4753,-7.4821,-7.4975,-7.5046,-7.5151,-7.5181,-7.5218,-7.5316,-7.5346,-7.5524,-7.5495,-7.5607,-7.5814,-7.5886,-7.595,-7.6202,-7.6173,-7.6239,-7.6363,-7.6476,-7.6504,-7.6529,-7.6619,-7.6651,-7.6259,-7.6259,-7.626,0,-7.4848,-7.5042,-7.5056,-7.52,-7.5273,-7.5242,-7.5397,-7.5464,-7.5601,-7.5651,-7.5599,-7.5858,-7.5923,-7.6138,-7.62,-7.6252,-7.6294,-7.6227,-7.6499,-7.6525,-7.6548,-7.6634,-7.6668,-7.6267,-7.6266,-7.6265,-7.6264,0,-7.5153,-7.5288,-7.5399,-7.5534,-7.5619,-7.5768,-7.5804,-7.5888,-7.5886,-7.5921,-7.6102,-7.6178,-7.6308,-7.6359,-7.6357,-7.6575,-7.6544,-7.6495,-7.6401,-7.6589,-7.667,-7.6703,-7.6277,-7.6275,-7.6272,-7.6271,0,0,-7.5434,-7.5574,-7.5615,-7.5676,-7.5789,-7.5893,-7.6039,-7.6168,-7.624,-7.6335,-7.6458,-7.6634,-7.659,-7.6662,-7.6668,-7.6767,-7.6962,-7.6707,-7.6709,-7.6751,-7.7206,-7.7242,-7.728,-7.6944,-7.695,-7.6955,-7.7198,0,-7.5668,-7.5928,-7.5945,-7.618,-7.6304,-7.6276,-7.6404,-7.6486,-7.6524,-7.6633,-7.6673,-7.6798,-7.6731,-7.6774,-7.6872,-7.6918,-7.7053,-7.69,-7.7057,-7.7062,-7.7034,-7.7322,-7.7361,-7.7586,-7.7229,-7.7235,-7.7239,0,-7.5977,-7.6083,-7.633,-7.6426,-7.6479,-7.6594,-7.6713,-7.6818,-7.6911,-7.6931,-7.7012,-7.7004,-7.7153,-7.7053,-7.7258,-7.7153,-7.7218,-7.725,-7.7259,-7.7275,-7.7162,-7.7345,-7.7658,-7.7692,-7.7288,-7.7284,-7.7281,0,-7.6157,-7.6361,-7.6536,-7.6588,-7.6705,-7.6786,-7.6838,-7.6924,-7.7,-7.7104,-7.7153,-7.7272,-7.7337,-7.7428,-7.7452,-7.7377,-7.7657,-7.7558,-7.7677,-7.7676,-7.7737,-7.7733,-7.8065,-7.7779,-7.7778,-7.7777,-7.7777,0,-7.6418,-7.657,-7.6618,-7.6726,-7.6895,-7.6913,-7.708,-7.7126,-7.7204,-7.7318,-7.7301,-7.7409,-7.7433,-7.7546,-7.7565,-7.7731,-7.7761,-7.778,-7.7784,-7.7782,-7.778,-7.7825,-7.781,-7.7786,-7.7784,-7.7783,-7.7781,0,-7.6648,-7.6686,-7.6875,-7.697,-7.6997,-7.7118,-7.7198,-7.7301,-7.7335,-7.7481,-7.7516,-7.757,-7.7702,-7.7734,-7.789,-7.7903,-7.81,-7.8088,-7.807,-7.8069,-7.8186,-7.8174,-7.8559,-7.861,-7.829,-7.8293,-7.8295,0,-7.6812,-7.6929,-7.7036,-7.7113,-7.7169,-7.7292,-7.737,-7.7391,-7.7473,-7.7587,-7.7676,-7.7805,-7.791,-7.8121,-7.8173,-7.8293,-7.8284,-7.841,-7.8301,-7.8296,-7.8286,-7.8279,-7.829,-7.8431,-7.8434,-7.8437,-7.8439,0,-7.7099,-7.7112,-7.7226,-7.7347,-7.744,-7.7536,-7.7627,-7.7691,-7.7724,-7.7817,-7.7952,-7.8033,-7.8193,-7.8322,-7.8442,-7.8493,-7.8473,-7.8473,-7.8507,-7.8507,-7.8491,-7.8502,-7.8126,-7.8464,-7.8462,-7.846,-7.8459,-7.8458,-7.7301,-7.7404,-7.7496,-7.7623,-7.7694,-7.778,-7.7881,-7.7929,-7.8042,-7.8176,-7.8181,-7.8328,-7.8416,-7.8576,-7.8635,-7.8749,-7.871,-7.8759,-7.8771,-7.8783,-7.8793,-7.8473,-7.877,-7.877,-7.8769,-7.8768,-7.8768,0,-7.7588,-7.7645,-7.7762,-7.7891,-7.7991,-7.7964,-7.8063,-7.8148,-7.8278,-7.8364,-7.8467,-7.8622,-7.8747,-7.8809,-7.8932,-7.9012,-7.9005,-7.9043,-7.9038,-7.905,-7.8821,-7.878,-7.9047,-7.9047,-7.9047,-7.9047,-7.9046,-7.9046,-7.7748,-7.792,-7.7945,-7.8151,-7.8208,-7.8353,-7.8412,-7.8491,-7.8559,-7.8733,-7.8837,-7.8878,-7.8954,-7.9082,-7.9195,-7.921,-7.9256,-7.93,-7.931,-7.9095,-7.9066,-7.9039,-7.9,-7.931,-7.931,-7.953,-7.9532,-7.9533]}]]